Flag for Germany Weather past 2 weeks in Germering, Bavaria, Germany

Now
36 °F

Scattered clouds.


Feels Like: 25 °F
Forecast: 33 / 41 °F
Wind: 17 mph from West

Location: Oberpfaffenhofen

Current Time: Apr 1, 2015 at 11:36:58 AM

Latest Report: Apr 1, 2015 at 11:20 AM


Visibility: N/A

Pressure: 30.07 "Hg

Humidity: 81%

Dew point: 30 °F

Location of GermeringLocation

Historic Weather in Germering — Graph

°F

Germering temperature yesterday

Maximum temperature yesterday: 57 °F (at 10:20 AM)
Minimum temperature yesterday: 43 °F (at 5:20 PM)
Average temperature yesterday: 54 °F

Past Weeks' High & Low Weather Summary

 TemperatureHumidityPressure
High63 °F (Mar 17, 12:50 PM)100% (Mar 24, 6:50 AM)30.24 "Hg (Mar 24, 6:50 AM)
Low27 °F (Mar 20, 6:50 AM)24% (Mar 17, 1:20 PM)29.53 "Hg (Mar 25, 1:50 PM)
Average47 °F62%29.93 "Hg
* Reported Mar 17 9:20 AM — Apr 1 10:20 AM, Germering, Weather by CustomWeather, © 2015

Note: Actual official high and low records may vary slightly from our data, if they occured in-between our weather recording intervals... More about our weather records

Advertising

Germering weather history for previous 24 hours

 ConditionsComfort  
Time TempWeatherWind HumidityBarometerVisibility
10:20 AM
Wed, Apr 1
34 °FScattered clouds.21 mph87%30.04 "HgN/A
9:50 AM32 °FPartly sunny.26 mph87%30.04 "HgN/A
9:20 AM34 °FPassing clouds.16 mph93%30.01 "HgN/A
8:50 AM32 °FPartly sunny.17 mph100%29.98 "HgN/A
8:20 AM32 °FLight snow. Partly sunny.13 mph100%29.98 "Hg1 mi
7:50 AM32 °FLight snow. Passing clouds.15 mph100%29.98 "Hg2 mi
7:20 AM32 °FLight snow. Ice fog.16 mph93%29.98 "Hg2 mi
6:50 AM32 °FLight snow. Passing clouds.17 mph93%29.95 "Hg4 mi
6:20 PM
Tue, Mar 31
46 °FSprinkles. Partly sunny.24 mph82%29.71 "HgN/A
5:50 PM45 °FPartly sunny.23 mph87%29.71 "HgN/A
5:20 PM43 °FRain showers. Partly sunny.32 mph93%29.71 "HgN/A
4:50 PM52 °FSprinkles. Partly sunny.33 mph67%29.65 "HgN/A
4:20 PM52 °FLight rain. Partly sunny.40 mph67%29.62 "HgN/A
3:50 PM54 °FLight rain. Partly sunny.40 mph63%29.62 "HgN/A
3:20 PM55 °FPartly sunny.39 mph51%29.62 "HgN/A
2:50 PM55 °FPartly sunny.37 mph51%29.62 "HgN/A
2:20 PM57 °FPartly sunny.40 mph48%29.59 "HgN/A
1:50 PM57 °FSprinkles. Partly sunny.36 mph51%29.59 "HgN/A
1:20 PM57 °FPartly sunny.37 mph55%29.59 "HgN/A
12:50 PM57 °FRefreshingly cool.44 mph55%29.59 "HgN/A
12:20 PM57 °FPartly sunny.38 mph55%29.59 "HgN/A
11:50 AM57 °FPartly sunny.41 mph55%29.59 "HgN/A
11:20 AM57 °FPartly sunny.38 mph51%29.56 "HgN/A
Weather by CustomWeather, © 2015

See weather overviewHow to use our weather pages